Location: Czu?�w
(50.1404°N, 18.9919°E)
Time: 03:37:11
(UTC+00:00)

Okean-O - Pass Details

Date: 27 October 2020
Orbit: 638 x 641 km, 98.2° (Epoch: 27 November)

Event Time Altitude Azimuth Distance (km) Brightness Sun altitude
Rises 17:12:11 0° 168° (SSE) 2,935 5.9 -17.1°
Reaches altitude 10° 17:14:23 10° 170° (S) 2,031 5.1 -17.5°
Maximum altitude 17:18:49 76° 256° (WSW) 667 2.8 -18.2°
Drops below altitude 10° 17:23:16 10° 343° (NNW) 2,046 5.4 -18.9°
Sets 17:25:30 0° 345° (NNW) 2,960 6.3 -19.2°
